Location: Aranbee
(34.0885°N, 118.2342°W)
Time: 06:31:18
(UTC+00:00)

Explorer 7 - Pass Details

Date: 05 August 2021
Orbit: 484 x 676 km, 50.3° (Epoch: 23 September)

Event Time Altitude Azimuth Distance (km) Brightness Sun altitude
Exits shadow 11:53:27 12° 293° (WNW) 1,558 8.8 -14.5°
Maximum altitude 11:55:42 18° 333° (NNW) 1,253 8.7 -14.1°
Drops below altitude 10° 11:58:24 10° 19° (NNE) 1,696 10.1 -13.6°
Sets 12:01:10 0° 38° (NE) 2,609 11.7 -13.1°
